Stations météo

réclame
Mon MeteoGroup
Jerez De La Frontera aeropuert, Espagne (8451): Température de l'air & dewpoint: 11.01.2020 23:00:00 - 17.01.2020 23:00:00 (CET)Jerez De La Frontera aeropuert, Espagne (8451): Vitesse du vent: 11.01.2020 23:00:00 - 17.01.2020 23:00:00 (CET)Jerez De La Frontera aeropuert, Espagne (8451): Direction du vent: 11.01.2020 23:00:00 - 17.01.2020 23:00:00 (CET)Jerez De La Frontera aeropuert, Espagne (8451): reduced air pressure: 11.01.2020 23:00:00 - 17.01.2020 23:00:00 (CET)Jerez De La Frontera aeropuert, Espagne (8451): visibility: 11.01.2020 23:00:00 - 17.01.2020 23:00:00 (CET)
Date & Time tt [°C] td [°C] ff [km/h] ff [knt] dd ppp [hPa] vv [km]
17.01.2020 23:00:00 10,0 9,8 8 4 NE 1032,8 0,1
17.01.2020 22:00:00 8,7 8,3 0 0 N 1032,9 0,6
17.01.2020 21:00:00 11,4 10,9 2 1 SSW 1032,6 4,0
17.01.2020 20:00:00 13,5 12,7 5 3 SSW 1032,0 9
17.01.2020 19:00:00 14,8 12,7 5 3 SSW 1031,5 10
17.01.2020 18:00:00 16,7 12,7 8 4 NNE 1031,3 10
17.01.2020 17:00:00 19,5 13,3 8 4 SW 1031,1 10
17.01.2020 16:00:00 18,4 13,9 11 6 SSW 1030,9 10
17.01.2020 15:00:00 19,4 13,4 5 3 - 1031,2 10
17.01.2020 14:00:00 18,7 14,0 8 4 SSW 1032,0 10
17.01.2020 13:00:00 17,6 14,3 5 3 - 1033,0 10
17.01.2020 12:00:00 16,4 13,3 8 4 S 1033,4 10
17.01.2020 11:00:00 15,0 12,5 5 3 S 1033,2 8
17.01.2020 10:00:00 12,5 11,2 4 2 ENE 1032,9 7
17.01.2020 09:00:00 10,9 10,0 2 1 - 1032,2 8
17.01.2020 08:00:00 9,8 9,2 5 3 ENE 1031,8 10
17.01.2020 07:00:00 9,0 8,5 4 2 - 1031,3 10
17.01.2020 06:00:00 7,9 7,5 4 2 ENE 1030,7 10
17.01.2020 05:00:00 7,3 6,7 5 3 E 1030,5 10
17.01.2020 04:00:00 6,6 5,7 2 1 - 1030,6 10
17.01.2020 03:00:00 7,5 6,8 0 0 N 1030,7 10
17.01.2020 02:00:00 7,1 6,4 4 2 E 1030,5 10
17.01.2020 01:00:00 7,4 6,5 5 3 ESE 1030,6 10
17.01.2020 00:00:00 6,5 5,4 5 3 ENE 1030,9 10
16.01.2020 23:00:00 7,5 6,0 4 2 E 1030,2 10
16.01.2020 22:00:00 8,5 6,8 8 4 E 1030,1 10
16.01.2020 21:00:00 10,9 8,3 5 3 SSE 1029,7 10
16.01.2020 20:00:00 11,3 8,7 8 4 SSW 1029,3 10
16.01.2020 19:00:00 11,8 8,5 13 7 SSW 1028,6 10
16.01.2020 18:00:00 16,4 8,7 15 8 SW 1028,0 10
16.01.2020 17:00:00 18,6 9,1 15 8 SSW 1027,6 10
16.01.2020 16:00:00 19,9 5,8 15 8 SW 1027,3 10
16.01.2020 15:00:00 20,2 5,7 9 5 SSW 1027,4 10
16.01.2020 14:00:00 19,6 7,7 5 3 S 1027,9 10
16.01.2020 13:00:00 18,5 7,1 9 5 - 1028,7 10
16.01.2020 12:00:00 15,0 6,2 2 1 - 1029,1 10
16.01.2020 11:00:00 11,7 4,6 4 2 E 1029,3 10
16.01.2020 10:00:00 6,0 3,5 5 3 ENE 1029,0 10
16.01.2020 09:00:00 1,9 0,4 5 3 NNE 1028,4 10
16.01.2020 08:00:00 1,9 0,0 5 3 ENE 1028,0 10
16.01.2020 07:00:00 2,3 0,7 2 1 E 1027,8 10
16.01.2020 06:00:00 3,4 0,9 2 1 - 1027,5 10
16.01.2020 05:00:00 4,1 1,8 8 4 E 1027,5 10
16.01.2020 04:00:00 4,9 2,6 5 3 ENE 1027,7 10
16.01.2020 03:00:00 4,3 2,4 5 3 E 1027,9 10
16.01.2020 02:00:00 5,8 3,8 4 2 - 1027,9 10
16.01.2020 01:00:00 4,8 3,3 5 3 NE 1028,0 10
16.01.2020 00:00:00 5,5 3,5 5 3 N 1028,3 10
15.01.2020 23:00:00 6,5 4,5 5 3 ENE 1028,2 10
15.01.2020 22:00:00 7,4 5,4 2 1 ENE 1028,0 10
15.01.2020 21:00:00 8,3 5,9 4 2 - 1027,9 10
15.01.2020 20:00:00 11,2 7,7 5 3 ESE 1027,7 10
15.01.2020 19:00:00 13,5 8,5 9 5 SSW 1027,4 10
15.01.2020 18:00:00 16,1 9,5 11 6 SSW 1027,1 10
15.01.2020 17:00:00 17,9 9,3 18 10 SSW 1026,7 10
15.01.2020 16:00:00 18,8 9,0 21 11 SSW 1026,1 10
15.01.2020 15:00:00 18,8 9,4 21 11 SSW 1026,1 10
15.01.2020 14:00:00 19,1 8,8 21 11 SSW 1026,5 10
15.01.2020 13:00:00 18,4 10,3 16 9 SSW 1026,9 10
15.01.2020 12:00:00 16,7 11,2 9 5 S 1027,4 10
15.01.2020 11:00:00 14,1 10,2 8 4 SSE 1027,0 10
15.01.2020 10:00:00 10,4 9,3 2 1 - 1026,3 10
15.01.2020 09:00:00 6,2 5,6 9 5 E 1025,8 10
15.01.2020 08:00:00 4,5 3,6 5 3 NE 1025,4 10
15.01.2020 07:00:00 6,0 5,4 8 4 ESE 1024,5 10
15.01.2020 06:00:00 4,9 4,0 8 4 ENE 1024,4 10
15.01.2020 05:00:00 5,8 4,8 8 4 E 1024,6 10
15.01.2020 04:00:00 5,2 4,0 5 3 ENE 1024,8 10
15.01.2020 03:00:00 6,4 4,9 8 4 E 1024,8 10
15.01.2020 02:00:00 6,4 4,6 8 4 E 1024,8 10
15.01.2020 01:00:00 6,4 4,8 5 3 ENE 1025,2 10
15.01.2020 00:00:00 7,1 4,9 4 2 - 1025,4 10
14.01.2020 23:00:00 6,8 4,5 5 3 ENE 1025,3 10
14.01.2020 22:00:00 7,2 5,2 4 2 ENE 1025,2 10
14.01.2020 21:00:00 7,6 4,9 5 3 N 1025,1 10
14.01.2020 20:00:00 9,6 5,4 5 3 ESE 1024,9 10
14.01.2020 19:00:00 11,7 5,8 5 3 WSW 1024,7 10
14.01.2020 18:00:00 14,8 6,1 9 5 WSW 1024,3 10
14.01.2020 17:00:00 15,8 6,5 9 5 SW 1024,0 10
14.01.2020 16:00:00 16,0 6,4 4 2 - 1023,6 10
14.01.2020 15:00:00 16,8 6,9 4 2 - 1023,8 10
14.01.2020 14:00:00 15,8 6,6 2 1 - 1024,5 10
14.01.2020 13:00:00 14,8 7,2 2 1 - 1025,4 10
14.01.2020 12:00:00 12,7 8,0 2 1 - 1026,1 10
14.01.2020 11:00:00 8,9 6,2 0 0 N 1026,1 10
14.01.2020 10:00:00 5,0 4,6 5 3 NNW 1025,4 10
14.01.2020 09:00:00 2,5 2,0 4 2 - 1024,8 10
14.01.2020 08:00:00 2,3 1,7 0 0 N 1024,8 10
14.01.2020 07:00:00 2,9 2,2 4 2 - 1024,2 10
14.01.2020 06:00:00 4,0 2,8 2 1 - 1023,8 10
14.01.2020 05:00:00 4,9 3,7 0 0 N 1024,1 10
14.01.2020 04:00:00 5,0 4,1 4 2 - 1024,4 10
14.01.2020 03:00:00 3,8 2,8 8 4 N 1024,6 10
14.01.2020 02:00:00 4,5 3,5 4 2 E 1024,8 10
14.01.2020 01:00:00 4,3 3,1 4 2 NE 1025,3 10
14.01.2020 00:00:00 4,4 3,1 5 3 N 1025,5 10
13.01.2020 23:00:00 5,9 4,1 4 2 - 1025,5 10
13.01.2020 22:00:00 7,9 5,4 4 2 NE 1025,7 10
13.01.2020 21:00:00 10,0 6,5 4 2 NE 1026,0 10
13.01.2020 20:00:00 10,7 6,8 8 4 NW 1026,1 10
13.01.2020 19:00:00 12,7 6,9 5 3 W 1025,7 10
13.01.2020 18:00:00 14,0 7,7 8 4 NNW 1025,3 10
13.01.2020 17:00:00 16,5 7,4 5 3 WNW 1025,0 10
13.01.2020 16:00:00 16,7 7,3 4 2 W 1025,3 50
13.01.2020 15:00:00 16,4 7,5 4 2 N 1025,7 10
13.01.2020 14:00:00 15,0 7,2 11 6 N 1026,8 10
13.01.2020 13:00:00 14,0 7,4 15 8 N 1027,9 50
13.01.2020 12:00:00 12,2 6,9 9 5 NNW 1028,5 10
13.01.2020 11:00:00 8,3 5,7 4 2 - 1028,3 10
13.01.2020 10:00:00 4,2 2,9 0 0 N 1027,8 10
13.01.2020 09:00:00 0,7 -0,2 4 2 - 1027,7 10
13.01.2020 08:00:00 0,8 0,1 4 2 - 1027,4 10
13.01.2020 07:00:00 0,1 -1,0 4 2 - 1027,1 10
13.01.2020 06:00:00 0,3 -0,6 8 4 NNE 1027,3 10
13.01.2020 05:00:00 0,3 -0,7 4 2 NNE 1027,7 10
13.01.2020 04:00:00 1,3 0,0 4 2 - 1028,2 10
13.01.2020 03:00:00 1,5 0,2 0 0 N 1028,2 10
13.01.2020 02:00:00 1,1 -0,2 5 3 ENE 1028,8 10
13.01.2020 01:00:00 2,1 0,8 4 2 NNE 1029,4 10
13.01.2020 00:00:00 3,2 1,2 4 2 SSE 1029,9 10
12.01.2020 23:00:00 3,7 1,2 0 0 N 1029,8 10
12.01.2020 22:00:00 5,2 2,5 0 0 N 1029,6 10
12.01.2020 21:00:00 7,0 3,2 4 2 NNW 1029,2 10
12.01.2020 20:00:00 9,5 4,6 2 1 - 1029,5 10
12.01.2020 19:00:00 10,8 5,7 13 7 N 1028,8 10
12.01.2020 18:00:00 13,8 4,9 13 7 N 1028,5 10
12.01.2020 17:00:00 16,5 4,3 13 7 N 1028,5 10
12.01.2020 16:00:00 16,8 4,6 16 9 N 1028,6 10
12.01.2020 15:00:00 16,7 8,2 15 8 N 1029,1 10
12.01.2020 14:00:00 15,7 7,3 15 8 N 1030,0 10
12.01.2020 13:00:00 14,6 7,4 9 5 N 1031,3 10
12.01.2020 12:00:00 11,9 7,1 2 1 - 1032,2 10
12.01.2020 11:00:00 8,6 5,9 0 0 N 1032,2 10
12.01.2020 10:00:00 4,9 4,2 4 2 N 1031,8 10
12.01.2020 09:00:00 1,0 0,3 8 4 NNW 1031,6 10
12.01.2020 08:00:00 1,2 0,3 4 2 - 1031,2 10
12.01.2020 07:00:00 1,3 0,4 0 0 N 1031,0 10
12.01.2020 06:00:00 2,4 1,5 2 1 NNW 1030,9 10
12.01.2020 05:00:00 2,1 1,2 2 1 E 1031,1 10
12.01.2020 04:00:00 3,0 1,9 0 0 N 1031,4 10
12.01.2020 03:00:00 4,4 2,9 4 2 NNW 1031,2 10
12.01.2020 02:00:00 3,4 1,9 5 3 NNE 1031,0 10
12.01.2020 01:00:00 5,1 3,3 5 3 E 1031,2 10
12.01.2020 00:00:00 4,7 3,0 9 5 ENE 1031,4 10
11.01.2020 23:00:00 5,5 3,0 5 3 ENE 1031,0 10

tt = Température de l'air
td = dewpoint
ff = Vitesse du vent
dd = Direction du vent
ppp = reduced air pressure
vv = visibility

stations d'obs. à proximité